Wind_Speed
10 9 7 7 5 4 4 5 5 2 1 2 2 4 5 16 21 20 19 19 18 17 16 16 16 17 16 16 16 16 16 16 17 17 17 17 18 19
8 8 7 6 4 5 4 4 5 7 3 7 5 12 21 22 21 20 21 19 19 18 17 17 18 18 17 16 17 17 17 18 19 19 18 18 19 21
6 5 5 5 5 5 5 6 7 9 9 10 18 24 26 26 24 22 21 21 19 18 17 18 18 18 18 17 17 16 17 18 19 18 19 20 22 23
7 7 7 7 7 7 7 8 10 11 12 12 19 26 27 27 26 25 22 19 20 19 19 19 18 19 20 20 17 16 17 19 21 22 22 23 24 24
9 9 10 10 11 12 12 14 15 16 16 17 16 22 26 27 26 23 23 24 23 21 19 19 18 18 17 16 17 18 19 22 23 25 26 26 25 24
12 13 14 15 16 17 17 18 18 19 20 20 18 19 22 24 21 23 27 25 26 24 22 20 20 19 19 19 19 20 23 24 23 23 23 24 24 25
17 17 18 19 18 17 17 19 19 20 20 18 16 15 15 15 17 19 20 22 26 25 25 24 23 21 19 21 25 28 25 21 21 22 23 24 26 27
21 22 21 20 19 19 20 21 22 24 27 23 20 18 20 19 18 19 18 17 14 15 15 18 20 25 30 30 29 22 22 23 24 25 26 28 28 29
21 22 22 20 19 22 23 24 27 28 28 26 29 28 23 19 17 15 14 15 17 23 28 32 26 28 25 28 27 25 25 26 25 26 27 29 30 31
24 26 26 26 25 24 26 27 28 30 31 31 27 20 19 22 25 27 29 31 30 28 26 25 22 26 25 27 24 24 26 28 32 33 32 33 34 35
25 26 26 26 26 27 29 29 29 28 27 28 29 29 29 28 27 28 30 22 22 23 20 23 20 22 24 28 28 26 28 28 28 29 30 31 32 33
26 27 30 33 31 30 32 31 31 29 28 28 30 33 31 30 27 26 21 16 19 22 23 22 22 21 23 26 26 25 27 27 27 27 26 24 29 34
23 24 26 28 31 33 36 36 35 31 33 33 32 33 32 33 33 32 31 29 24 25 25 19 22 23 22 27 28 28 30 29 27 26 29 34 35 36
29 29 30 31 32 32 34 37 38 37 37 35 35 33 29 29 29 32 33 31 30 30 30 23 21 21 22 24 25 26 23 21 24 29 32 35 38 41
31 31 35 35 34 35 37 38 37 33 29 24 20 18 26 30 29 27 28 27 27 29 30 29 28 29 30 29 19 23 27 28 29 31 33 35 38 38
31 31 29 25 26 30 38 37 37 33 28 26 30 31 27 21 19 18 18 20 22 27 29 29 26 26 24 24 24 28 28 27 31 32 36 40 40 40
23 25 27 27 28 29 27 23 20 16 28 27 20 20 16 15 17 17 20 22 23 24 24 24 24 24 28 28 27 27 32 34 35 36 36 39 40 38
29 30 28 26 23 24 26 29 29 27 21 16 14 15 17 17 19 19 21 22 22 21 18 19 21 22 26 34 27 32 34 35 39 38 37 36 40 40
12 16 17 23 22 21 20 19 20 22 23 24 24 24 22 21 21 20 19 19 17 17 19 21 21 18 9 13 34 29 35 36 34 36 36 36 40 43
4 10 8 5 7 17 18 18 19 18 17 18 19 21 21 20 19 18 16 16 18 20 22 23 23 24 23 19 28 38 35 39 37 40 40 41 44 48
19 13 12 12 11 10 11 14 19 21 22 21 20 19 20 20 20 18 19 19 22 21 20 23 29 30 32 30 24 37 46 41 41 43 43 38 38 40
18 14 13 12 13 15 18 17 17 19 22 19 21 22 22 21 21 21 22 22 23 23 27 32 34 28 27 25 30 36 40 44 44 41 41 45 42 19
22 20 16 15 16 18 18 18 21 23 20 19 21 21 21 22 23 23 25 26 25 26 27 31 30 27 31 30 33 34 38 43 40 39 40 43 47 51
Wind_Direction
145 143 139 141 146 142 156 165 152 154 278 241 216 207 279 310 319 322 321 319 317 314 312 311 307 308 306 304 303 303 299 299 300 300 299 304 310 311
167 163 165 168 179 191 190 193 200 193 212 225 247 269 295 305 311 312 312 310 307 306 305 303 302 302 299 297 297 296 294 295 296 294 295 300 303 305
187 187 193 197 210 224 230 234 237 234 232 270 281 291 298 304 308 309 310 309 308 309 306 303 300 295 294 291 294 293 295 297 297 293 293 293 298 298
225 229 233 236 243 250 256 260 265 263 259 267 284 293 298 303 307 308 309 307 307 305 301 298 296 294 290 288 285 290 295 296 293 293 290 292 293 292
251 254 258 262 266 270 273 272 270 270 268 267 274 286 292 300 305 303 302 303 303 304 298 292 289 288 290 284 281 285 293 295 291 285 284 285 286 286
264 266 268 269 272 275 273 271 272 271 272 271 268 273 282 293 292 295 299 302 302 301 295 286 285 285 283 281 281 284 292 294 290 287 284 282 281 283
274 276 277 277 275 269 269 269 266 263 260 257 259 260 255 260 263 285 281 286 291 290 292 290 292 291 290 289 291 294 293 292 288 287 285 283 282 281
280 283 281 276 267 263 261 258 262 256 251 246 246 246 254 256 264 262 267 274 284 287 278 284 289 286 287 286 291 288 289 288 286 284 284 284 282 282
273 273 271 267 264 264 263 259 257 255 256 262 255 253 255 258 261 257 253 262 268 271 278 278 279 276 277 282 284 284 284 284 283 283 284 283 282 282
260 262 265 263 258 259 256 256 257 257 256 253 256 256 260 268 268 266 266 267 270 268 264 269 274 275 279 279 280 280 282 282 283 283 283 283 283 284
260 257 255 256 256 258 257 256 256 253 253 255 258 263 265 263 259 260 253 251 263 267 265 261 269 271 277 278 278 276 278 278 280 282 283 284 283 285
259 258 257 258 259 258 256 256 255 253 252 251 254 258 260 261 261 263 269 260 265 274 268 259 269 272 279 275 272 274 272 270 277 279 279 283 290 292
263 262 258 259 260 258 256 254 250 252 248 249 249 251 249 253 255 253 256 260 261 262 271 267 271 272 266 280 279 274 272 271 269 267 274 283 286 285
261 259 259 262 262 260 257 256 257 255 247 238 238 240 240 239 241 246 255 257 260 259 270 264 264 263 268 273 276 279 273 267 271 276 279 281 281 282
269 265 265 264 262 261 259 257 255 256 254 250 249 232 234 239 241 240 245 244 254 265 268 265 258 261 259 260 275 282 285 280 277 276 275 274 276 277
268 270 273 271 264 259 253 251 251 252 250 247 247 246 248 241 228 237 243 249 254 262 263 258 256 262 261 266 274 279 280 276 280 276 275 276 275 272
264 267 266 264 264 266 268 272 276 260 248 250 234 240 241 233 234 234 241 245 249 258 262 257 249 256 268 272 273 273 278 278 278 277 275 274 274 271
249 232 238 239 241 245 247 253 257 259 256 255 247 245 246 246 251 248 246 246 248 252 250 257 269 276 276 276 268 274 273 273 275 275 274 272 274 273
272 327 244 242 243 245 244 243 247 249 249 247 250 253 251 245 244 244 239 234 241 250 259 267 266 259 266 270 280 272 271 273 276 275 271 268 269 272
338 335 320 289 247 236 240 241 241 237 236 235 238 240 238 240 239 231 226 241 255 264 268 268 261 257 255 266 279 280 273 273 270 271 274 273 271 275
302 284 271 266 270 270 252 241 237 241 245 243 239 238 239 230 226 241 255 258 263 264 263 264 264 272 274 277 275 275 277 275 268 267 271 273 273 276
283 272 261 255 255 250 248 250 255 252 246 250 250 245 239 241 250 257 263 261 265 264 267 274 279 276 269 258 265 272 278 282 280 275 271 267 266 269
274 274 272 264 259 248 250 259 260 259 256 251 248 249 250 252 257 265 271 268 266 269 269 273 276 273 267 264 265 271 273 275 280 282 279 274 273 272
Height
861 863 866 869 871 872 874 877 879 885 886 884 886 886 887 888 888 887 886 885 885 885 885 884 884 883 882 882 881 879 878 878 877 876 874 874 873 871
861 862 865 868 870 873 874 875 877 880 884 882 882 883 884 884 884 883 883 882 882 881 880 880 880 879 879 878 877 876 875 874 873 872 871 870 869 868
859 861 864 866 869 871 872 873 875 877 878 878 877 878 877 878 878 878 877 876 876 875 875 875 875 875 874 873 873 872 871 870 869 868 867 866 866 864
857 859 862 865 866 867 868 870 871 873 874 874 873 873 873 873 872 871 871 871 871 871 871 871 871 870 869 868 868 867 866 865 865 864 863 862 861 860
855 857 860 861 861 862 864 866 867 868 870 870 870 871 869 869 867 866 866 865 866 866 865 865 865 865 864 864 864 863 862 860 859 859 858 857 856 854
853 854 856 857 857 858 860 861 862 862 864 865 866 866 866 865 865 864 861 861 860 860 860 860 860 859 859 859 858 858 856 854 853 852 851 851 849 848
850 851 852 852 853 854 855 855 857 859 860 860 860 860 860 861 861 860 859 858 856 856 854 853 852 852 853 853 852 850 849 847 846 846 845 844 843 841
844 845 846 848 849 851 852 853 853 852 853 853 853 853 853 853 855 856 856 855 853 852 849 847 848 847 847 846 844 843 843 842 840 840 838 837 835 834
837 838 839 841 843 844 845 847 848 848 847 846 845 845 846 848 849 850 850 849 848 847 846 840 843 839 839 838 838 837 835 835 833 832 830 829 828 826
831 831 832 834 836 839 838 838 839 839 840 840 839 839 840 841 843 844 843 841 838 838 839 834 836 832 831 830 830 830 829 827 826 824 822 820 819 818
823 824 824 825 828 830 831 829 830 830 831 832 831 832 832 833 834 834 832 832 829 831 832 830 828 825 824 822 820 820 820 818 816 815 813 812 811 809
815 815 816 817 818 821 822 820 819 821 822 822 822 822 824 824 825 825 825 825 825 821 825 825 822 821 816 813 812 810 809 809 807 806 805 804 803 802
805 805 806 808 809 810 811 809 807 813 813 813 813 812 812 813 814 816 817 818 816 813 817 819 816 814 813 806 805 804 802 800 799 798 798 797 796 795
795 796 798 799 799 799 799 799 799 801 800 800 800 800 801 803 804 806 807 807 808 807 808 810 808 808 806 801 797 795 793 791 791 789 788 785 783 781
787 787 788 788 788 788 788 789 790 791 791 790 789 789 791 793 795 797 798 798 800 800 800 800 800 799 798 792 788 786 786 784 783 781 777 774 770 768
780 778 777 778 778 778 778 779 780 781 781 780 781 782 785 786 786 788 790 792 793 791 790 790 790 790 787 785 784 780 779 776 773 771 767 761 757 753
773 772 770 770 771 771 772 771 772 771 772 773 772 774 776 778 779 781 783 784 784 783 782 782 782 782 780 779 776 774 769 765 762 758 755 747 742 739
762 760 760 761 762 762 762 763 765 766 767 768 768 769 771 771 773 774 775 775 775 775 774 775 775 774 771 766 770 764 760 755 748 745 742 736 726 724
751 752 751 753 754 755 756 756 757 758 759 760 762 763 764 765 766 766 766 767 767 767 767 767 767 767 764 756 752 757 750 743 739 732 728 723 714 708
750 751 751 749 748 748 750 751 752 752 754 754 755 756 757 758 758 759 759 760 761 760 759 759 759 758 756 749 742 737 739 733 728 719 713 707 701 695
746 746 747 746 745 745 744 745 745 746 747 747 748 749 750 751 751 752 753 755 755 753 751 749 747 748 744 741 734 723 714 716 715 707 701 697 688 680
740 740 740 740 740 739 740 740 740 740 741 741 742 743 744 745 746 747 747 747 746 745 742 738 735 735 733 730 720 712 704 696 692 691 689 685 676 664
733 733 733 733 733 733 734 734 734 734 735 736 737 737 739 739 739 740 740 739 737 735 733 727 724 723 717 715 711 702 694 685 680 673 668 662 656 649